Year,Month,Day,Hour,Minute,Value (Times are PST for windspeed in km/hr)
2011,09,25,00,00,0.20
2011,09,25,00,01,0.10
2011,09,25,00,02,0.00
2011,09,25,00,03,0.00
2011,09,25,00,04,0.00
2011,09,25,00,05,0.00
2011,09,25,00,06,0.00
2011,09,25,00,07,0.00
2011,09,25,00,08,0.20
2011,09,25,00,09,0.10
2011,09,25,00,10,0.10
2011,09,25,00,11,0.20
2011,09,25,00,12,0.20
2011,09,25,00,13,1.60
2011,09,25,00,14,2.70
2011,09,25,00,15,1.20
2011,09,25,00,16,0.10
2011,09,25,00,17,0.00
2011,09,25,00,18,0.00
2011,09,25,00,19,0.00
2011,09,25,00,20,0.00
2011,09,25,00,21,0.00
2011,09,25,00,22,0.00
2011,09,25,00,23,0.00
2011,09,25,00,24,0.00
2011,09,25,00,25,0.00
2011,09,25,00,26,0.00
2011,09,25,00,27,0.00
2011,09,25,00,28,0.00
2011,09,25,00,29,0.00
2011,09,25,00,30,0.00
2011,09,25,00,31,0.00
2011,09,25,00,32,0.00
2011,09,25,00,33,0.00
2011,09,25,00,34,0.00
2011,09,25,00,35,0.00
2011,09,25,00,36,0.00
2011,09,25,00,37,0.00
2011,09,25,00,38,0.00
2011,09,25,00,39,0.00
2011,09,25,00,40,0.00
2011,09,25,00,41,0.00
2011,09,25,00,42,0.00
2011,09,25,00,43,0.00
2011,09,25,00,44,0.00
2011,09,25,00,45,0.20
2011,09,25,00,46,0.00
2011,09,25,00,47,0.00
2011,09,25,00,48,0.00
2011,09,25,00,49,0.00
2011,09,25,00,50,0.00
2011,09,25,00,51,0.00
2011,09,25,00,52,0.00
2011,09,25,00,53,0.00
2011,09,25,00,54,0.00
2011,09,25,00,55,0.00
2011,09,25,00,56,0.00
2011,09,25,00,57,0.00
2011,09,25,00,58,0.00
2011,09,25,00,59,0.00
2011,09,25,01,00,0.00
2011,09,25,01,01,0.00
2011,09,25,01,02,0.00
2011,09,25,01,03,0.00
2011,09,25,01,04,0.00
2011,09,25,01,05,0.10
2011,09,25,01,06,0.00
2011,09,25,01,07,0.00
2011,09,25,01,08,0.00
2011,09,25,01,09,0.00
2011,09,25,01,10,0.00
2011,09,25,01,11,0.00
2011,09,25,01,12,0.00
2011,09,25,01,13,0.00
2011,09,25,01,14,0.20
2011,09,25,01,15,0.00
2011,09,25,01,16,0.00
2011,09,25,01,17,0.00
2011,09,25,01,18,0.00
2011,09,25,01,19,0.20
2011,09,25,01,20,0.10
2011,09,25,01,21,0.00
2011,09,25,01,22,0.00
2011,09,25,01,23,0.00
2011,09,25,01,24,0.00
2011,09,25,01,25,0.00
2011,09,25,01,26,0.00
2011,09,25,01,27,0.00
2011,09,25,01,28,0.00
2011,09,25,01,29,0.00
2011,09,25,01,30,0.00
2011,09,25,01,31,0.40
2011,09,25,01,32,0.30
2011,09,25,01,33,0.40
2011,09,25,01,34,2.10
2011,09,25,01,35,0.80
2011,09,25,01,36,0.00
2011,09,25,01,37,0.10
2011,09,25,01,38,0.30
2011,09,25,01,39,0.00
2011,09,25,01,40,0.20
2011,09,25,01,41,0.10
2011,09,25,01,42,0.10
2011,09,25,01,43,0.00
2011,09,25,01,44,0.00
2011,09,25,01,45,0.00
2011,09,25,01,46,0.40
2011,09,25,01,47,0.10
2011,09,25,01,48,0.00
2011,09,25,01,49,0.00
2011,09,25,01,50,0.20
2011,09,25,01,51,0.00
2011,09,25,01,52,0.00
2011,09,25,01,53,0.00
2011,09,25,01,54,0.20
2011,09,25,01,55,0.00
2011,09,25,01,56,0.00
2011,09,25,01,57,0.00
2011,09,25,01,58,0.10
2011,09,25,01,59,0.00
2011,09,25,02,00,0.00
2011,09,25,02,01,0.10
2011,09,25,02,02,0.00
2011,09,25,02,03,0.10
2011,09,25,02,04,0.10
2011,09,25,02,05,2.10
2011,09,25,02,06,0.00
2011,09,25,02,07,0.10
2011,09,25,02,08,0.10
2011,09,25,02,09,0.20
2011,09,25,02,10,0.10
2011,09,25,02,11,0.00
2011,09,25,02,12,0.00
2011,09,25,02,13,0.00
2011,09,25,02,14,0.00
2011,09,25,02,15,0.10
2011,09,25,02,16,0.00
2011,09,25,02,17,0.00
2011,09,25,02,18,0.00
2011,09,25,02,19,0.00
2011,09,25,02,20,0.00
2011,09,25,02,21,0.20
2011,09,25,02,22,0.00
2011,09,25,02,23,0.30
2011,09,25,02,24,1.90
2011,09,25,02,25,2.00
2011,09,25,02,26,3.00
2011,09,25,02,27,2.60
2011,09,25,02,28,4.70
2011,09,25,02,29,3.10
2011,09,25,02,30,3.60
2011,09,25,02,31,0.10
2011,09,25,02,32,1.80
2011,09,25,02,33,2.30
2011,09,25,02,34,4.90
2011,09,25,02,35,1.60
2011,09,25,02,36,3.40
2011,09,25,02,37,3.00
2011,09,25,02,38,1.00
2011,09,25,02,39,3.20
2011,09,25,02,40,1.90
2011,09,25,02,41,0.60
2011,09,25,02,42,1.20
2011,09,25,02,43,1.20
2011,09,25,02,44,0.20
2011,09,25,02,45,1.60
2011,09,25,02,46,2.30
2011,09,25,02,47,0.60
2011,09,25,02,48,0.30
2011,09,25,02,49,0.50
2011,09,25,02,50,0.20
2011,09,25,02,51,0.40
2011,09,25,02,52,0.10
2011,09,25,02,53,0.00
2011,09,25,02,54,0.00
2011,09,25,02,55,0.30
2011,09,25,02,56,2.90
2011,09,25,02,57,5.10
2011,09,25,02,58,5.80
2011,09,25,02,59,0.40
2011,09,25,03,00,0.10
2011,09,25,03,01,0.10
2011,09,25,03,02,3.80
2011,09,25,03,03,0.50
2011,09,25,03,04,1.20
2011,09,25,03,05,7.70
2011,09,25,03,06,6.10
2011,09,25,03,07,5.60
2011,09,25,03,08,0.80
2011,09,25,03,09,5.30
2011,09,25,03,10,4.20
2011,09,25,03,11,7.50
2011,09,25,03,12,5.40
2011,09,25,03,13,5.20
2011,09,25,03,14,0.90
2011,09,25,03,15,1.30
2011,09,25,03,16,0.20
2011,09,25,03,17,4.30
2011,09,25,03,18,4.50
2011,09,25,03,19,5.00
2011,09,25,03,20,1.70
2011,09,25,03,21,9.70
2011,09,25,03,22,5.80
2011,09,25,03,23,5.10
2011,09,25,03,24,6.30
2011,09,25,03,25,5.50
2011,09,25,03,26,0.80
2011,09,25,03,27,5.10
2011,09,25,03,28,3.60
2011,09,25,03,29,4.70
2011,09,25,03,30,5.30
2011,09,25,03,31,6.40
2011,09,25,03,32,0.20
2011,09,25,03,33,3.00
2011,09,25,03,34,8.90
2011,09,25,03,35,2.70
2011,09,25,03,36,3.80
2011,09,25,03,37,2.10
2011,09,25,03,38,4.10
2011,09,25,03,39,2.40
2011,09,25,03,40,9.00
2011,09,25,03,41,9.50
2011,09,25,03,42,8.00
2011,09,25,03,43,9.10
2011,09,25,03,44,11.70
2011,09,25,03,45,2.70
2011,09,25,03,46,6.80
2011,09,25,03,47,10.60
2011,09,25,03,48,7.30
2011,09,25,03,49,10.10
2011,09,25,03,50,5.80
2011,09,25,03,51,7.20
2011,09,25,03,52,5.30
2011,09,25,03,53,0.50
2011,09,25,03,54,6.40
2011,09,25,03,55,2.30
2011,09,25,03,56,2.60
2011,09,25,03,57,5.50
2011,09,25,03,58,12.30
2011,09,25,03,59,6.80
2011,09,25,04,00,10.80
2011,09,25,04,01,5.70
2011,09,25,04,02,8.00
2011,09,25,04,03,6.80
2011,09,25,04,04,4.30
2011,09,25,04,05,4.80
2011,09,25,04,07,6.40
2011,09,25,04,08,11.60
2011,09,25,04,10,6.00
2011,09,25,04,13,10.40
2011,09,25,04,14,5.30
2011,09,25,04,15,18.00
2011,09,25,04,16,4.50
2011,09,25,04,17,5.60
2011,09,25,04,18,4.90
2011,09,25,04,19,13.80
2011,09,25,04,20,8.50
2011,09,25,04,21,12.70
2011,09,25,04,22,10.10
2011,09,25,04,23,5.30
2011,09,25,04,24,0.00
2011,09,25,04,25,0.00
2011,09,25,04,27,2.90
2011,09,25,04,30,9.70
2011,09,25,04,31,6.70
2011,09,25,04,33,4.50
2011,09,25,04,35,8.50
2011,09,25,04,36,9.30
2011,09,25,04,37,3.40
2011,09,25,04,38,12.60
2011,09,25,04,39,9.20
2011,09,25,04,40,6.20
2011,09,25,04,41,10.60
2011,09,25,04,42,9.50
2011,09,25,04,43,6.50
2011,09,25,04,44,3.50
2011,09,25,04,45,12.50
2011,09,25,04,46,3.30
2011,09,25,04,47,11.50
2011,09,25,04,48,9.70
2011,09,25,04,49,6.40
2011,09,25,04,50,6.60
2011,09,25,04,51,5.10
2011,09,25,04,52,12.50
2011,09,25,04,53,12.20
2011,09,25,04,54,9.40
2011,09,25,04,55,11.30
2011,09,25,04,56,10.00
2011,09,25,04,57,5.50
2011,09,25,04,58,8.40
2011,09,25,04,59,10.00
2011,09,25,05,00,3.80
2011,09,25,05,01,2.90
2011,09,25,05,02,9.30
2011,09,25,05,03,1.40
2011,09,25,05,04,1.70
2011,09,25,05,05,0.60
2011,09,25,05,06,0.60
2011,09,25,05,07,0.00
2011,09,25,05,08,0.10
2011,09,25,05,09,0.10
2011,09,25,05,10,0.50
2011,09,25,05,11,2.90
2011,09,25,05,12,4.70
2011,09,25,05,13,5.40
2011,09,25,05,14,1.60
2011,09,25,05,15,6.20
2011,09,25,05,16,3.30
2011,09,25,05,17,0.80
2011,09,25,05,18,1.40
2011,09,25,05,19,0.10
2011,09,25,05,20,1.50
2011,09,25,05,21,1.80
2011,09,25,05,22,0.80
2011,09,25,05,23,0.30
2011,09,25,05,24,2.30
2011,09,25,05,25,3.30
2011,09,25,05,26,1.90
2011,09,25,05,27,0.30
2011,09,25,05,28,0.00
2011,09,25,05,29,5.90
2011,09,25,05,30,4.40
2011,09,25,05,31,4.60
2011,09,25,05,32,6.80
2011,09,25,05,33,7.00
2011,09,25,05,34,8.10
2011,09,25,05,35,8.10
2011,09,25,05,36,8.10
2011,09,25,05,37,8.10
2011,09,25,05,38,8.10
2011,09,25,05,39,3.10
2011,09,25,05,40,3.90
2011,09,25,05,41,3.80
2011,09,25,05,42,5.60
2011,09,25,05,43,1.50
2011,09,25,05,44,0.80
2011,09,25,05,45,0.70
2011,09,25,05,46,0.40
2011,09,25,05,47,0.70
2011,09,25,05,48,0.00
2011,09,25,05,49,0.10
2011,09,25,05,50,0.30
2011,09,25,05,51,0.40
2011,09,25,05,52,0.40
2011,09,25,05,53,0.00
2011,09,25,05,54,0.00
2011,09,25,05,55,0.00
2011,09,25,05,56,0.20
2011,09,25,05,57,0.10
2011,09,25,05,58,0.10
2011,09,25,05,59,0.20
2011,09,25,06,00,0.00
2011,09,25,06,01,0.10
2011,09,25,06,02,0.50
2011,09,25,06,03,0.10
2011,09,25,06,04,0.00
2011,09,25,06,05,0.00
2011,09,25,06,06,0.00
2011,09,25,06,07,0.00
2011,09,25,06,08,0.10
2011,09,25,06,09,0.00
2011,09,25,06,10,0.00
2011,09,25,06,11,0.00
2011,09,25,06,12,0.20
2011,09,25,06,13,0.00
2011,09,25,06,14,0.00
2011,09,25,06,15,0.10
2011,09,25,06,16,0.10
2011,09,25,06,17,0.00
2011,09,25,06,18,0.00
2011,09,25,06,19,0.00
2011,09,25,06,20,0.00
2011,09,25,06,21,0.00
2011,09,25,06,22,0.00
2011,09,25,06,23,0.00
2011,09,25,06,24,0.00
2011,09,25,06,25,0.00
2011,09,25,06,26,0.00
2011,09,25,06,27,0.00
2011,09,25,06,28,0.10
2011,09,25,06,29,0.00
2011,09,25,06,30,0.10
2011,09,25,06,31,0.40
2011,09,25,06,32,1.50
2011,09,25,06,33,0.80
2011,09,25,06,34,0.30
2011,09,25,06,35,0.00
2011,09,25,06,36,0.00
2011,09,25,06,37,0.10
2011,09,25,06,38,0.00
2011,09,25,06,39,0.50
2011,09,25,06,40,0.20
2011,09,25,06,41,3.00
2011,09,25,06,42,2.80
2011,09,25,06,43,1.00
2011,09,25,06,44,3.10
2011,09,25,06,45,2.70
2011,09,25,06,46,1.40
2011,09,25,06,47,1.30
2011,09,25,06,48,2.50
2011,09,25,06,49,0.30
2011,09,25,06,50,4.20
2011,09,25,06,51,2.70
2011,09,25,06,52,6.30
2011,09,25,06,53,1.00
2011,09,25,06,54,2.70
2011,09,25,06,55,4.60
2011,09,25,06,56,5.50
2011,09,25,06,57,6.90
2011,09,25,06,58,1.00
2011,09,25,06,59,2.10
2011,09,25,07,00,4.10
2011,09,25,07,01,7.30
2011,09,25,07,02,4.60
2011,09,25,07,03,2.30
2011,09,25,07,04,2.80
2011,09,25,07,05,2.00
2011,09,25,07,06,4.20
2011,09,25,07,07,1.40
2011,09,25,07,08,2.50
2011,09,25,07,09,7.60
2011,09,25,07,10,4.90
2011,09,25,07,11,3.60
2011,09,25,07,12,4.30
2011,09,25,07,13,2.50
2011,09,25,07,14,0.60
2011,09,25,07,15,1.40
2011,09,25,07,16,0.10
2011,09,25,07,17,0.00
2011,09,25,07,18,0.20
2011,09,25,07,19,2.20
2011,09,25,07,20,3.20
2011,09,25,07,21,0.10
2011,09,25,07,22,1.00
2011,09,25,07,23,0.60
2011,09,25,07,24,1.20
2011,09,25,07,25,0.20
2011,09,25,07,26,0.00
2011,09,25,07,27,0.00
2011,09,25,07,28,0.20
2011,09,25,07,29,0.60
2011,09,25,07,30,0.00
2011,09,25,07,31,0.00
2011,09,25,07,32,0.00
2011,09,25,07,33,0.10
2011,09,25,07,34,0.50
2011,09,25,07,35,1.30
2011,09,25,07,36,0.90
2011,09,25,07,37,0.70
2011,09,25,07,38,0.00
2011,09,25,07,39,0.20
2011,09,25,07,40,0.00
2011,09,25,07,41,0.70
2011,09,25,07,42,1.20
2011,09,25,07,43,0.50
2011,09,25,07,44,0.70
2011,09,25,07,45,2.70
2011,09,25,07,46,1.40
2011,09,25,07,47,1.50
2011,09,25,07,48,1.50
2011,09,25,07,49,1.10
2011,09,25,07,50,1.20
2011,09,25,07,51,0.20
2011,09,25,07,52,0.50
2011,09,25,07,53,1.40
2011,09,25,07,54,2.50
2011,09,25,07,55,3.90
2011,09,25,07,56,4.30
2011,09,25,07,57,3.00
2011,09,25,07,58,4.10
2011,09,25,07,59,1.40
2011,09,25,08,00,3.70
2011,09,25,08,01,2.70
2011,09,25,08,02,0.30
2011,09,25,08,03,4.30
2011,09,25,08,04,3.20
2011,09,25,08,05,0.10
2011,09,25,08,06,1.50
2011,09,25,08,07,3.00
2011,09,25,08,08,3.50
2011,09,25,08,09,3.00
2011,09,25,08,10,3.70
2011,09,25,08,11,5.10
2011,09,25,08,12,2.30
2011,09,25,08,13,4.80
2011,09,25,08,14,2.30
2011,09,25,08,15,0.90
2011,09,25,08,16,2.70
2011,09,25,08,17,2.60
2011,09,25,08,18,2.20
2011,09,25,08,19,0.60
2011,09,25,08,20,2.90
2011,09,25,08,21,7.00
2011,09,25,08,22,6.30
2011,09,25,08,23,3.90
2011,09,25,08,24,9.30
2011,09,25,08,25,5.00
2011,09,25,08,26,3.60
2011,09,25,08,27,8.00
2011,09,25,08,28,3.80
2011,09,25,08,29,5.30
2011,09,25,08,30,1.70
2011,09,25,08,31,2.00
2011,09,25,08,32,5.80
2011,09,25,08,33,8.30
2011,09,25,08,34,4.50
2011,09,25,08,35,3.30
2011,09,25,08,36,8.10
2011,09,25,08,37,1.40
2011,09,25,08,38,2.70
2011,09,25,08,39,1.30
2011,09,25,08,40,7.40
2011,09,25,08,41,5.80
2011,09,25,08,42,6.70
2011,09,25,08,43,8.90
2011,09,25,08,44,9.60
2011,09,25,08,45,10.40
2011,09,25,08,46,10.00
2011,09,25,08,47,11.20
2011,09,25,08,48,8.80
2011,09,25,08,49,11.50
2011,09,25,08,50,9.50
2011,09,25,08,51,14.00
2011,09,25,08,52,12.00
2011,09,25,08,53,11.00
2011,09,25,08,54,10.40
2011,09,25,08,55,9.30
2011,09,25,08,56,12.10
2011,09,25,08,57,11.20
2011,09,25,08,58,10.40
2011,09,25,08,59,9.30
2011,09,25,09,00,6.40
2011,09,25,09,01,7.50
2011,09,25,09,02,8.00
2011,09,25,09,03,11.60
2011,09,25,09,04,9.90
2011,09,25,09,05,16.70
2011,09,25,09,06,6.80
2011,09,25,09,07,14.30
2011,09,25,09,08,5.80
2011,09,25,09,09,12.10
2011,09,25,09,10,10.60
2011,09,25,09,11,5.30
2011,09,25,09,12,11.80
2011,09,25,09,13,14.20
2011,09,25,09,14,10.80
2011,09,25,09,15,4.50
2011,09,25,09,16,11.90
2011,09,25,09,17,12.60
2011,09,25,09,18,6.90
2011,09,25,09,19,10.90
2011,09,25,09,20,12.70
2011,09,25,09,21,13.30
2011,09,25,09,22,14.10
2011,09,25,09,23,10.30
2011,09,25,09,24,10.80
2011,09,25,09,25,12.10
2011,09,25,09,26,10.90
2011,09,25,09,27,11.60
2011,09,25,09,28,11.40
2011,09,25,09,29,15.00
2011,09,25,09,30,15.20
2011,09,25,09,31,10.50
2011,09,25,09,32,13.60
2011,09,25,09,33,17.10
2011,09,25,09,34,15.00
2011,09,25,09,35,9.00
2011,09,25,09,36,11.90
2011,09,25,09,37,8.90
2011,09,25,09,38,11.80
2011,09,25,09,39,13.90
2011,09,25,09,40,13.50
2011,09,25,09,41,15.60
2011,09,25,09,42,15.60
2011,09,25,09,43,16.40
2011,09,25,09,44,18.80
2011,09,25,09,45,19.40
2011,09,25,09,46,20.80
2011,09,25,09,47,10.60
2011,09,25,09,48,12.00
2011,09,25,09,49,15.90
2011,09,25,09,50,20.10
2011,09,25,09,51,15.40
2011,09,25,09,52,17.90
2011,09,25,09,53,18.10
2011,09,25,09,54,14.30
2011,09,25,09,55,12.60
2011,09,25,09,56,15.60
2011,09,25,09,57,11.00
2011,09,25,09,58,10.40
2011,09,25,09,59,19.00
2011,09,25,10,00,13.00
2011,09,25,10,01,14.80
2011,09,25,10,02,10.70
2011,09,25,10,03,7.90
2011,09,25,10,04,13.30
2011,09,25,10,05,10.10
2011,09,25,10,06,14.30
2011,09,25,10,07,9.10
2011,09,25,10,08,8.60
2011,09,25,10,09,11.60
2011,09,25,10,10,14.80
2011,09,25,10,11,8.60
2011,09,25,10,12,12.20
2011,09,25,10,13,9.70
2011,09,25,10,14,15.50
2011,09,25,10,15,16.10
2011,09,25,10,16,15.80
2011,09,25,10,17,14.60
2011,09,25,10,18,12.80
2011,09,25,10,19,9.00
2011,09,25,10,20,11.20
2011,09,25,10,21,13.50
2011,09,25,10,22,10.60
2011,09,25,10,23,13.10
2011,09,25,10,24,8.90
2011,09,25,10,25,8.90
2011,09,25,10,26,8.70
2011,09,25,10,27,16.30
2011,09,25,10,28,14.70
2011,09,25,10,29,18.00
2011,09,25,10,30,15.40
2011,09,25,10,31,14.10
2011,09,25,10,32,7.20
2011,09,25,10,33,10.40
2011,09,25,10,34,16.80
2011,09,25,10,35,12.90
2011,09,25,10,36,13.90
2011,09,25,10,37,11.90
2011,09,25,10,38,12.20
2011,09,25,10,39,6.40
2011,09,25,10,40,13.40
2011,09,25,10,41,10.70
2011,09,25,10,42,11.30
2011,09,25,10,43,11.30
2011,09,25,10,44,14.40
2011,09,25,10,45,6.30
2011,09,25,10,46,8.10
2011,09,25,10,47,2.50
2011,09,25,10,48,2.30
2011,09,25,10,49,8.50
2011,09,25,10,50,11.70
2011,09,25,10,51,12.50
2011,09,25,10,52,6.40
2011,09,25,10,53,9.30
2011,09,25,10,54,8.60
2011,09,25,10,55,10.20
2011,09,25,10,56,10.30
2011,09,25,10,57,10.40
2011,09,25,10,58,9.10
2011,09,25,10,59,3.30
2011,09,25,11,00,3.00
2011,09,25,11,01,6.10
2011,09,25,11,02,5.00
2011,09,25,11,03,4.70
2011,09,25,11,04,3.30
2011,09,25,11,05,0.10
2011,09,25,11,06,2.30
2011,09,25,11,07,3.00
2011,09,25,11,08,0.10
2011,09,25,11,09,2.20
2011,09,25,11,10,1.90
2011,09,25,11,11,0.10
2011,09,25,11,12,1.10
2011,09,25,11,13,3.20
2011,09,25,11,14,5.10
2011,09,25,11,15,3.50
2011,09,25,11,16,5.30
2011,09,25,11,17,5.60
2011,09,25,11,18,7.60
2011,09,25,11,19,6.70
2011,09,25,11,20,3.50
2011,09,25,11,21,4.50
2011,09,25,11,22,4.80
2011,09,25,11,23,2.70
2011,09,25,11,24,4.00
2011,09,25,11,25,6.60
2011,09,25,11,26,8.90
2011,09,25,11,27,6.60
2011,09,25,11,28,4.90
2011,09,25,11,29,6.30
2011,09,25,11,30,6.40
2011,09,25,11,31,6.30
2011,09,25,11,32,4.40
2011,09,25,11,33,5.60
2011,09,25,11,34,10.80
2011,09,25,11,35,5.90
2011,09,25,11,36,3.10
2011,09,25,11,37,4.50
2011,09,25,11,38,5.30
2011,09,25,11,39,4.10
2011,09,25,11,40,4.90
2011,09,25,11,41,3.00
2011,09,25,11,42,2.40
2011,09,25,11,43,2.20
2011,09,25,11,44,2.50
2011,09,25,11,45,5.10
2011,09,25,11,46,1.70
2011,09,25,11,47,1.40
2011,09,25,11,48,3.40
2011,09,25,11,49,3.70
2011,09,25,11,50,3.30
2011,09,25,11,51,1.40
2011,09,25,11,52,0.30
2011,09,25,11,53,0.60
2011,09,25,11,54,0.20
2011,09,25,11,55,0.40
2011,09,25,11,56,0.60
2011,09,25,11,57,0.10
2011,09,25,11,58,0.10
2011,09,25,11,59,0.30
2011,09,25,12,00,0.20
2011,09,25,12,01,0.30
2011,09,25,12,02,0.10
2011,09,25,12,03,0.00
2011,09,25,12,04,0.60
2011,09,25,12,05,0.80
2011,09,25,12,06,0.30
2011,09,25,12,07,0.20
2011,09,25,12,08,0.50
2011,09,25,12,09,3.40
2011,09,25,12,10,2.90
2011,09,25,12,11,3.30
2011,09,25,12,12,0.80
2011,09,25,12,13,2.00
2011,09,25,12,14,0.20
2011,09,25,12,15,0.30
2011,09,25,12,16,0.20
2011,09,25,12,17,1.50
2011,09,25,12,18,2.10
2011,09,25,12,19,0.70
2011,09,25,12,20,2.40
2011,09,25,12,21,0.40
2011,09,25,12,22,0.40
2011,09,25,12,23,0.10
2011,09,25,12,24,0.20
2011,09,25,12,25,0.10
2011,09,25,12,26,0.10
2011,09,25,12,27,0.40
2011,09,25,12,28,0.10
2011,09,25,12,29,0.40
2011,09,25,12,30,0.20
2011,09,25,12,31,0.00
2011,09,25,12,32,0.00
2011,09,25,12,33,0.20
2011,09,25,12,34,0.00
2011,09,25,12,35,0.20
2011,09,25,12,36,0.30
2011,09,25,12,37,0.90
2011,09,25,12,38,2.30
2011,09,25,12,39,1.50
2011,09,25,12,40,1.20
2011,09,25,12,41,1.40
2011,09,25,12,42,3.40
2011,09,25,12,43,4.90
2011,09,25,12,44,5.00
2011,09,25,12,45,1.30
2011,09,25,12,46,2.40
2011,09,25,12,47,2.20
2011,09,25,12,48,0.80
2011,09,25,12,49,0.80
2011,09,25,12,50,1.50
2011,09,25,12,51,5.20
2011,09,25,12,52,5.30
2011,09,25,12,53,4.10
2011,09,25,12,54,2.90
2011,09,25,12,55,0.90
2011,09,25,12,56,0.20
2011,09,25,12,57,1.00
2011,09,25,12,58,2.30
2011,09,25,12,59,3.50
2011,09,25,13,00,2.60
2011,09,25,13,01,1.20
2011,09,25,13,02,5.00
2011,09,25,13,03,1.40
2011,09,25,13,04,0.10
2011,09,25,13,05,0.00
2011,09,25,13,06,0.20
2011,09,25,13,07,0.30
2011,09,25,13,08,0.10
2011,09,25,13,09,0.00
2011,09,25,13,10,0.00
2011,09,25,13,11,0.00
2011,09,25,13,12,0.10
2011,09,25,13,13,1.40
2011,09,25,13,14,1.40
2011,09,25,13,15,0.00
2011,09,25,13,16,0.10
2011,09,25,13,17,0.00
2011,09,25,13,18,0.20
2011,09,25,13,19,0.30
2011,09,25,13,20,0.10
2011,09,25,13,21,0.60
2011,09,25,13,22,0.70
2011,09,25,13,23,0.80
2011,09,25,13,24,0.80
2011,09,25,13,25,2.10
2011,09,25,13,26,3.70
2011,09,25,13,27,1.90
2011,09,25,13,28,4.10
2011,09,25,13,29,0.30
2011,09,25,13,30,0.90
2011,09,25,13,31,1.40
2011,09,25,13,32,1.50
2011,09,25,13,33,1.10
2011,09,25,13,34,0.70
2011,09,25,13,35,2.20
2011,09,25,13,36,1.90
2011,09,25,13,37,6.20
2011,09,25,13,38,2.70
2011,09,25,13,39,6.00
2011,09,25,13,40,4.70
2011,09,25,13,41,9.40
2011,09,25,13,42,5.00
2011,09,25,13,43,0.80
2011,09,25,13,44,6.60
2011,09,25,13,45,12.10
2011,09,25,13,46,7.10
2011,09,25,13,47,4.50
2011,09,25,13,48,5.30
2011,09,25,13,49,5.80
2011,09,25,13,50,2.70
2011,09,25,13,51,0.50
2011,09,25,13,52,4.60
2011,09,25,13,53,4.90
2011,09,25,13,54,8.90
2011,09,25,13,55,8.00
2011,09,25,13,56,2.70
2011,09,25,13,57,2.80
2011,09,25,13,58,3.20
2011,09,25,13,59,10.70
2011,09,25,14,00,3.10
2011,09,25,14,01,1.70
2011,09,25,14,02,5.00
2011,09,25,14,03,1.40
2011,09,25,14,04,5.10
2011,09,25,14,05,7.20
2011,09,25,14,06,12.30
2011,09,25,14,07,6.40
2011,09,25,14,08,2.60
2011,09,25,14,09,7.00
2011,09,25,14,10,3.20
2011,09,25,14,11,4.40
2011,09,25,14,12,8.70
2011,09,25,14,13,2.50
2011,09,25,14,14,7.20
2011,09,25,14,15,5.20
2011,09,25,14,16,4.50
2011,09,25,14,17,4.30
2011,09,25,14,18,12.00
2011,09,25,14,19,7.50
2011,09,25,14,20,10.30
2011,09,25,14,21,11.00
2011,09,25,14,22,14.80
2011,09,25,14,23,6.30
2011,09,25,14,24,8.70
2011,09,25,14,25,4.20
2011,09,25,14,26,1.10
2011,09,25,14,27,8.10
2011,09,25,14,28,4.80
2011,09,25,14,29,6.30
2011,09,25,14,30,11.80
2011,09,25,14,31,14.30
2011,09,25,14,32,11.00
2011,09,25,14,33,11.30
2011,09,25,14,34,10.50
2011,09,25,14,35,5.40
2011,09,25,14,36,9.90
2011,09,25,14,37,8.00
2011,09,25,14,38,10.50
2011,09,25,14,39,10.70
2011,09,25,14,40,7.50
2011,09,25,14,41,13.10
2011,09,25,14,42,14.80
2011,09,25,14,43,7.50
2011,09,25,14,44,13.40
2011,09,25,14,45,14.00
2011,09,25,14,46,5.50
2011,09,25,14,47,7.20
2011,09,25,14,48,15.60
2011,09,25,14,49,8.90
2011,09,25,14,50,11.30
2011,09,25,14,51,10.70
2011,09,25,14,52,11.40
2011,09,25,14,53,15.70
2011,09,25,14,54,11.90
2011,09,25,14,55,6.80
2011,09,25,14,56,7.70
2011,09,25,14,57,13.00
2011,09,25,14,58,10.90
2011,09,25,14,59,8.10
2011,09,25,15,00,5.10
2011,09,25,15,01,18.20
2011,09,25,15,02,7.20
2011,09,25,15,03,4.30
2011,09,25,15,04,11.10
2011,09,25,15,05,16.50
2011,09,25,15,06,8.70
2011,09,25,15,07,15.00
2011,09,25,15,08,11.80
2011,09,25,15,09,9.80
2011,09,25,15,10,7.20
2011,09,25,15,11,11.60
2011,09,25,15,12,18.00
2011,09,25,15,13,11.10
2011,09,25,15,14,16.30
2011,09,25,15,15,14.60
2011,09,25,15,16,13.80
2011,09,25,15,17,14.30
2011,09,25,15,18,11.40
2011,09,25,15,19,8.70
2011,09,25,15,20,8.40
2011,09,25,15,21,4.10
2011,09,25,15,22,8.60
2011,09,25,15,23,7.60
2011,09,25,15,24,5.30
2011,09,25,15,25,5.30
2011,09,25,15,26,5.60
2011,09,25,15,27,3.00
2011,09,25,15,28,7.90
2011,09,25,15,29,4.20
2011,09,25,15,30,11.60
2011,09,25,15,31,6.80
2011,09,25,15,32,15.20
2011,09,25,15,33,7.50
2011,09,25,15,34,10.20
2011,09,25,15,35,10.60
2011,09,25,15,36,13.00
2011,09,25,15,37,9.50
2011,09,25,15,38,9.80
2011,09,25,15,39,3.70
2011,09,25,15,40,5.60
2011,09,25,15,41,6.00
2011,09,25,15,42,7.20
2011,09,25,15,43,5.80
2011,09,25,15,44,3.80
2011,09,25,15,45,12.00
2011,09,25,15,46,12.80
2011,09,25,15,47,10.20
2011,09,25,15,48,4.60
2011,09,25,15,49,5.40
2011,09,25,15,50,5.10
2011,09,25,15,51,3.10
2011,09,25,15,52,2.90
2011,09,25,15,53,3.10
2011,09,25,15,54,5.60
2011,09,25,15,55,4.40
2011,09,25,15,56,2.10
2011,09,25,15,57,2.80
2011,09,25,15,58,6.60
2011,09,25,15,59,0.90
2011,09,25,16,00,3.80
2011,09,25,16,01,6.80
2011,09,25,16,02,4.80
2011,09,25,16,03,4.10
2011,09,25,16,04,4.80
2011,09,25,16,05,8.80
2011,09,25,16,06,5.00
2011,09,25,16,07,8.20
2011,09,25,16,08,8.00
2011,09,25,16,09,10.40
2011,09,25,16,10,5.50
2011,09,25,16,11,9.30
2011,09,25,16,12,15.50
2011,09,25,16,13,8.70
2011,09,25,16,14,5.10
2011,09,25,16,15,8.30
2011,09,25,16,16,6.00
2011,09,25,16,17,6.40
2011,09,25,16,18,6.90
2011,09,25,16,19,14.30
2011,09,25,16,20,15.20
2011,09,25,16,21,11.40
2011,09,25,16,22,15.70
2011,09,25,16,23,6.90
2011,09,25,16,24,17.40
2011,09,25,16,25,10.30
2011,09,25,16,26,5.70
2011,09,25,16,27,8.80
2011,09,25,16,28,3.10
2011,09,25,16,29,10.20
2011,09,25,16,30,7.40
2011,09,25,16,31,3.30
2011,09,25,16,32,4.20
2011,09,25,16,33,7.20
2011,09,25,16,34,8.40
2011,09,25,16,35,6.10
2011,09,25,16,36,10.90
2011,09,25,16,37,11.60
2011,09,25,16,38,4.60
2011,09,25,16,39,6.80
2011,09,25,16,40,2.20
2011,09,25,16,41,9.40
2011,09,25,16,42,5.70
2011,09,25,16,43,6.00
2011,09,25,16,44,0.60
2011,09,25,16,45,6.70
2011,09,25,16,46,3.70
2011,09,25,16,47,4.30
2011,09,25,16,48,9.10
2011,09,25,16,49,6.90
2011,09,25,16,50,3.40
2011,09,25,16,51,4.30
2011,09,25,16,52,3.40
2011,09,25,16,53,5.00
2011,09,25,16,54,5.80
2011,09,25,16,55,11.10
2011,09,25,16,56,6.00
2011,09,25,16,57,9.20
2011,09,25,16,58,9.20
2011,09,25,16,59,6.70
2011,09,25,17,00,8.50
2011,09,25,17,01,5.60
2011,09,25,17,02,11.10
2011,09,25,17,03,5.10
2011,09,25,17,04,8.80
2011,09,25,17,05,12.60
2011,09,25,17,06,10.40
2011,09,25,17,07,12.50
2011,09,25,17,08,9.40
2011,09,25,17,09,7.90
2011,09,25,17,10,5.40
2011,09,25,17,11,8.80
2011,09,25,17,12,3.90
2011,09,25,17,13,6.90
2011,09,25,17,14,10.00
2011,09,25,17,15,13.10
2011,09,25,17,16,5.70
2011,09,25,17,17,9.70
2011,09,25,17,18,8.70
2011,09,25,17,19,5.50
2011,09,25,17,20,10.50
2011,09,25,17,21,8.60
2011,09,25,17,22,7.00
2011,09,25,17,23,8.50
2011,09,25,17,24,2.30
2011,09,25,17,25,15.20
2011,09,25,17,26,6.80
2011,09,25,17,27,15.20
2011,09,25,17,28,8.00
2011,09,25,17,29,3.80
2011,09,25,17,30,4.70
2011,09,25,17,31,7.70
2011,09,25,17,32,5.20
2011,09,25,17,33,7.50
2011,09,25,17,34,6.00
2011,09,25,17,35,1.30
2011,09,25,17,36,5.20
2011,09,25,17,37,12.00
2011,09,25,17,38,9.70
2011,09,25,17,39,3.50
2011,09,25,17,40,7.00
2011,09,25,17,41,6.50
2011,09,25,17,42,6.70
2011,09,25,17,43,4.80
2011,09,25,17,44,2.30
2011,09,25,17,45,1.70
2011,09,25,17,46,3.60
2011,09,25,17,47,10.80
2011,09,25,17,48,6.30
2011,09,25,17,49,3.30
2011,09,25,17,50,4.90
2011,09,25,17,51,2.70
2011,09,25,17,52,1.70
2011,09,25,17,53,1.00
2011,09,25,17,54,1.10
2011,09,25,17,55,3.60
2011,09,25,17,56,4.10
2011,09,25,17,57,0.90
2011,09,25,17,58,4.10
2011,09,25,17,59,6.70
2011,09,25,18,00,5.20
2011,09,25,18,01,1.90
2011,09,25,18,02,1.60
2011,09,25,18,03,2.90
2011,09,25,18,04,2.50
2011,09,25,18,05,3.10
2011,09,25,18,06,0.20
2011,09,25,18,07,1.10